Location: Roland
(31.1349°N, 85.4372°W)
Time: 20:45:59
(UTC+00:00)

Vanguard 2 Rocket - Visible Passes

Search period start: 17 April 2021 00:00
Search period end: 27 April 2021 00:00
Orbit: 553 x 3326 km, 32.9° (Epoch: 17 April)

Date Brightness Start Highest point End Pass type
(mag) Time Alt. Az. Time Alt. Az. Time Alt. Az.
17 Apr 8.8 01:06:45 10° WNW 01:23:47 70° SSW 01:31:18 22° SE visible
17 Apr 9.3 03:27:56 10° W 03:37:04 24° SW 03:37:06 24° SW visible
18 Apr 8.8 02:24:12 10° WNW 02:37:29 39° SW 02:40:54 31° S visible
19 Apr 9.1 01:20:49 10° WNW 01:37:17 56° SW 01:44:42 21° SE visible
19 Apr 9.8 03:44:12 10° W 03:49:53 15° SW 03:50:31 14° SW visible
20 Apr 9.2 00:17:34 10° WNW 00:36:25 71° SSW 00:47:55 10° SE visible
20 Apr 9.3 02:39:00 10° W 02:50:25 27° SW 02:54:20 22° SSW visible
21 Apr 9.3 01:35:04 10° WNW 01:50:28 42° SW 01:58:11 18° SSE visible
22 Apr 9.5 00:31:38 10° WNW 00:49:52 57° SW 01:01:22 10° SE visible
22 Apr 9.8 02:54:59 10° W 03:03:11 17° SW 03:07:52 13° SSW visible
23 Apr 9.7 01:49:51 10° W 02:03:22 30° SW 02:11:45 13° S visible
24 Apr 9.8 00:45:54 10° WNW 01:03:01 44° SW 01:14:23 10° SSE visible
25 Apr 10.0 02:05:41 10° W 02:16:06 20° SW 02:24:02 10° S visible
26 Apr 10.0 01:00:39 10° W 01:15:54 32° SW 01:26:47 10° SSE visible
